AirNav   Duncan Aviation - Near you to keep you flying
 
 1406 users online  

UT33 Kutv Channel Two Heliport
Salt Lake City, Utah, USA

GOING TO SALT LAKE CITY?


FAA INFORMATION EFFECTIVE 02 DECEMBER 2021

Location

FAA Identifier: UT33
Lat/Long: 40-43-28.8060N 111-58-34.7800W
40-43.480100N 111-58.579667W
40.7246683,-111.9763278
(estimated)
Elevation: 4240 ft. / 1292 m (estimated)
Variation: 15E (1985)
From city: 6 miles SW of SALT LAKE CITY, UT
Time zone: UTC -7 (UTC -6 during Daylight Saving Time)
Zip code: 84120

Heliport Operations

Heliport use: Private use. Permission required prior to landing
Activation date: 05/1979
Control tower: no
ARTCC: SALT LAKE CITY CENTER
FSS: CEDAR CITY FLIGHT SERVICE STATION
Attendance: CONTINUOUS
Wind indicator: lighted
Segmented circle: no
Lights: SS-SR

Heliport Communications

WX ASOS at SLC (4 nm N): 125.625 (801-359-4103)
WX AWOS-3 at U42 (6 nm S): 134.425 (801-562-0271)
WX AWOS-3 at TVY (18 nm W): 119.725 (435-882-6648)

Nearby radio navigation aids

VOR radial/distance  VOR name  Freq  Var
TCHr162/7.5WASATCH VORTAC116.8016E
FFUr341/27.0FAIRFIELD VORTAC116.6016E
OGDr156/30.5OGDEN VORTAC115.7014E
PVUr324/32.7PROVO VOR/DME108.4015E

Heliport Services

Fuel available: A

Runway Information

Helipad H1

Dimensions: 100 x 100 ft. / 30 x 30 m
Surface: concrete
Runway edge lights: medium intensity
Latitude: 40-43.480100N
Longitude: 111-58.579667W
Elevation: 4240.0 ft.
Traffic pattern: leftleft

Heliport Ownership and Management from official FAA records

Ownership: Privately-owned
Owner: WELLS FARGO CENTER (FACILITY)
WASATCH COMMERCIAL MANAGEMENT, 299 SOUTH MAIN #355
SALT LAKE CITY, UT 84111
Phone 501-961-1078
Manager: JENNY NIELSON
299 SOUTH MAIN #355
SALT LAKE CITY, UT 84111
Phone 501-961-1078

Heliport Operational Statistics

Aircraft based on the field: 1
Helicopters: 1
    

Additional Remarks

FOR CD CTC SALT LAKE CITY APCH AT 801-325-9670.

Instrument Procedures

There are no published instrument procedures at UT33.

Some nearby airports with instrument procedures:

KSLC - Salt Lake City International Airport (4 nm N)
U42 - South Valley Regional Airport (6 nm S)
KTVY - Bolinder Field-Tooele Valley Airport (18 nm W)
KHIF - Hill Air Force Base (24 nm N)
KOGD - Ogden-Hinckley Airport (28 nm N)
 
Loc | Ops | Rwys | IFR | FBO | Links
Com | Nav | Svcs | Stats | Notes
Area around UT33 (Kutv Channel Two Heliport)
 
Road maps at: MapQuest Bing Google
 
Aerial photo
No photo
 
Sectional chart

 
Airport distance calculator
Flying to Kutv Channel Two Heliport? Find the distance to fly.

From to UT33

Sunrise and sunset
Times for 07-Dec-2021
 Local
(UTC-7)
 Zulu
(UTC)
Morning civil twilight07:0914:09
Sunrise07:3914:39
Sunset16:5923:59
Evening civil twilight17:3000:30

Current date and time
Zulu (UTC)  07-Dec-2021 19:28:58
Local (UTC-7)  07-Dec-2021 12:28:58
 
METAR
KSLC 
4nm N 
071854Z 00000KT 10SM FEW060 SCT085 08/M02 A3009 RMK AO2 SLP185 T00831022
KU42 
7nm S 
071915Z AUTO 00000KT 10SM CLR 07/01 A3009 RMK AO1 T00740005
KTVY 
18nm W 
071915Z AUTO 34005KT 10SM CLR 07/00 A3010 RMK AO2
TAF
KSLC 
4nm N 
071724Z 0718/0824 15004KT P6SM SCT070 BKN090 FM071900 33007KT P6SM FEW080 SCT100 FM080300 15005KT P6SM FEW100 FM081500 17010KT P6SM SCT070 BKN090 FM081900 17012G20KT P6SM OVC050
NOTAMs
Click for the latest NOTAMs
NOTAMs are issued by the DoD/FAA and will open in a separate window not controlled by AirNav.

 

 
 

Would you like to see your business listed on this page?

 If your business provides an interesting product or service to pilots, flight crews, aircraft, or users of the Kutv Channel Two Heliport, you should consider listing it here.  To start the listing process, click on the button below
 
Add a business
 

Other Pages about Kutv Channel Two Heliport

Update a link
 
Copyright © AirNav, LLC. All rights reserved. Privacy Policy  Contact